DW2893 Weather Reports


Display with metric or nautical units.
time (UTC)temp
F
wind
direction
speed
MPH
gust
MPH
rain 1hr
in
rain 24hr
in
rain mn
in
humidity
%
barometer
mb
20220126112805 30 31 6.0 9.0 0.00 0.00 0.00 52 1026.6
20220126112306 30 27 6.0 9.0 0.00 0.00 0.00 52 1026.6
20220126111804 30 30 6.0 10.0 0.00 0.00 0.00 52 1026.5
20220126111305 30 27 6.0 12.0 0.00 0.00 0.00 52 1026.5
20220126110805 30 40 6.0 10.0 0.00 0.00 0.00 52 1026.4
20220126110304 30 41 6.0 10.0 0.00 0.00 0.00 52 1026.4
20220126105305 30 41 6.0 10.0 0.00 0.00 0.00 51 1026.2
20220126104805 30 31 6.0 12.0 0.00 0.00 0.00 51 1026.0
20220126104305 30 27 6.0 12.0 0.00 0.00 0.00 51 1026.0
20220126103805 30 41 5.0 12.0 0.00 0.00 0.00 51 1026.1
20220126103305 30 44 6.0 12.0 0.00 0.00 0.00 51 1026.1
20220126102805 30 35 6.0 12.0 0.00 0.00 0.00 51 1026.1
20220126102305 31 52 6.0 10.0 0.00 0.00 0.00 51 1026.1
20220126101804 31 32 6.0 12.0 0.00 0.00 0.00 51 1026.1
20220126100305 31 27 8.0 14.0 0.00 0.00 0.00 50 1026.2
20220126095306 31 37 9.0 14.0 0.00 0.00 0.00 50 1026.1
20220126094805 31 25 8.0 14.0 0.00 0.00 0.00 49 1026.1
20220126094305 31 35 8.0 14.0 0.00 0.00 0.00 49 1026.1
20220126093805 31 27 7.0 14.0 0.00 0.00 0.00 50 1025.9
20220126093304 31 30 7.0 12.0 0.00 0.00 0.00 50 1025.9
20220126092804 31 35 9.0 12.0 0.00 0.00 0.00 49 1025.9
20220126091305 31 37 8.0 14.0 0.00 0.00 0.00 49 1025.8
20220126090804 32 31 10.0 13.0 0.00 0.00 0.00 49 1025.9
20220126090304 32 33 8.0 16.0 0.00 0.00 0.00 49 1025.9
20220126085306 32 24 7.0 13.0 0.00 0.00 0.00 49 1026.0
20220126084804 32 29 9.0 13.0 0.00 0.00 0.00 49 1026.0
20220126084304 32 33 8.0 13.0 0.00 0.00 0.00 49 1025.7
20220126083805 32 36 9.0 13.0 0.00 0.00 0.00 49 1025.7
20220126082805 32 27 9.0 15.0 0.00 0.00 0.00 49 1025.7
20220126082305 32 28 7.0 12.0 0.00 0.00 0.00 49 1025.7
20220126080304 32 32 9.0 13.0 0.00 0.00 0.00 48 1025.7
20220126075804 32 36 8.0 15.0 0.00 0.00 0.00 48 1025.7
20220126074304 32 21 7.0 13.0 0.00 0.00 0.00 48 1025.3
20220126073804 32 27 6.0 18.0 0.00 0.00 0.00 48 1025.3
20220126073304 33 18 7.0 17.0 0.00 0.00 0.00 48 1025.3
20220126071804 33 31 7.0 13.0 0.00 0.00 0.00 47 1025.4
20220126070805 33 28 9.0 16.0 0.00 0.00 0.00 47 1025.2
20220126070304 33 37 7.0 13.0 0.00 0.00 0.00 47 1025.2
20220126065804 33 27 7.0 13.0 0.00 0.00 0.00 47 1025.3
20220126064308 34 34 10.0 14.0 0.00 0.00 0.00 47 1025.2
20220126062308 34 9 6.0 12.0 0.00 0.00 0.00 47 1025.0
20220126061809 34 27 6.0 13.0 0.00 0.00 0.00 47 1025.0
20220126061308 35 36 7.0 12.0 0.00 0.00 0.00 47 1025.1
20220126060942 35 24 6.0 12.0 0.00 0.00 0.00 47 1025.2
20220126060309 35 30 9.0 16.0 0.00 0.00 0.00 47 1025.2
20220126055308 35 0 5.0 9.0 0.00 0.00 0.00 46 1025.0
20220126054309 36 31 12.0 18.0 0.00 0.00 0.00 46 1024.7
20220126053309 36 30 9.0 18.0 0.00 0.00 0.00 46 1024.7
20220126052808 36 28 10.0 15.0 0.00 0.00 0.00 46 1024.7
20220126052308 36 37 8.0 14.0 0.00 0.00 0.00 46 1024.7
20220126051808 37 23 7.0 13.0 0.00 0.00 0.00 47 1024.6
20220126050809 37 20 9.0 15.0 0.00 0.00 0.00 46 1024.5
20220126045808 37 22 7.0 14.0 0.00 0.00 0.00 46 1024.4
20220126045308 38 31 7.0 12.0 0.00 0.00 0.00 46 1024.2
20220126044808 38 27 10.0 15.0 0.00 0.00 0.00 45 1024.1
20220126044308 38 16 9.0 14.0 0.00 0.00 0.00 45 1024.1
20220126043809 38 15 9.0 14.0 0.00 0.00 0.00 45 1024.1
20220126043308 39 22 10.0 18.0 0.00 0.00 0.00 45 1024.0
20220126042808 39 23 7.0 13.0 0.00 0.00 0.00 45 1023.8
20220126042308 39 15 8.0 16.0 0.00 0.00 0.00 44 1023.8
20220126041808 39 31 10.0 17.0 0.00 0.00 0.00 43 1023.8
20220126041308 39 12 7.0 13.0 0.00 0.00 0.00 43 1023.8
20220126040808 40 18 7.0 12.0 0.00 0.00 0.00 43 1023.8
20220126040308 40 30 7.0 20.0 0.00 0.00 0.00 42 1023.5
20220126035808 40 32 10.0 18.0 0.00 0.00 0.00 42 1023.5
20220126034808 40 25 7.0 16.0 0.00 0.00 0.00 42 1023.5
20220126033308 41 17 6.0 16.0 0.00 0.00 0.00 43 1023.4
20220126031808 41 22 10.0 20.0 0.00 0.00 0.00 42 1023.0
20220126030808 42 26 11.0 20.0 0.00 0.00 0.00 43 1022.7
20220126030308 42 17 10.0 21.0 0.00 0.00 0.00 43 1022.7
20220126025808 42 32 7.0 16.0 0.00 0.00 0.00 43 1022.4
20220126025308 43 4 8.0 15.0 0.00 0.00 0.00 43 1022.4
20220126024807 43 23 8.0 18.0 0.00 0.00 0.00 42 1022.4
20220126023808 43 11 10.0 16.0 0.00 0.00 0.00 43 1022.2
20220126023308 44 31 8.0 17.0 0.00 0.00 0.00 43 1022.2
20220126022808 44 0 8.0 17.0 0.00 0.00 0.00 43 1021.7
20220126021807 45 20 11.0 22.0 0.00 0.00 0.00 42 1021.7
20220126021308 45 20 9.0 12.0 0.00 0.00 0.00 43 1021.7
20220126020808 45 33 6.0 15.0 0.00 0.00 0.00 43 1021.7
20220126015308 46 28 9.0 16.0 0.00 0.00 0.00 42 1021.4
20220126014807 47 354 9.0 20.0 0.00 0.00 0.00 42 1020.7
20220126014308 47 31 8.0 16.0 0.00 0.00 0.00 42 1020.7
20220126013808 47 31 6.0 12.0 0.00 0.00 0.00 42 1020.7
20220126013308 48 22 8.0 14.0 0.00 0.00 0.00 42 1020.7
20220126012807 48 23 10.0 18.0 0.00 0.00 0.00 41 1020.7
20220126012307 48 26 12.0 18.0 0.00 0.00 0.00 41 1020.6
20220126011808 49 7 9.0 18.0 0.00 0.00 0.00 41 1020.5
20220126011308 50 27 11.0 20.0 0.00 0.00 0.00 41 1020.4
20220126010808 50 19 7.0 12.0 0.00 0.00 0.00 42 1020.4
20220126005308 51 24 5.0 10.0 0.00 0.00 0.00 43 1020.2
20220126004807 52 21 6.0 12.0 0.00 0.00 0.00 42 1019.9
20220126004308 52 36 6.0 9.0 0.00 0.00 0.00 43 1019.9
20220126003807 52 28 5.0 9.0 0.00 0.00 0.00 43 1019.6
20220126003308 52 27 6.0 9.0 0.00 0.00 0.00 43 1019.6
20220126002808 52 31 5.0 9.0 0.00 0.00 0.00 43 1019.5
20220126002307 53 34 6.0 10.0 0.00 0.00 0.00 43 1019.5
20220126001307 53 33 6.0 9.0 0.00 0.00 0.00 43 1019.3
20220126000808 53 27 6.0 10.0 0.00 0.00 0.00 44 1019.1
20220126000307 53 42 5.0 12.0 0.00 0.00 0.00 44 1019.1
20220125235807 53 22 5.0 12.0 0.00 0.00 0.00 44 1019.0
20220125235308 54 29 6.0 10.0 0.00 0.00 0.00 44 1019.0
20220125234807 54 33 6.0 10.0 0.00 0.00 0.00 44 1018.8
20220125233308 54 40 5.0 9.0 0.00 0.00 0.00 44 1018.7
20220125232807 54 26 6.0 10.0 0.00 0.00 0.00 44 1018.5
20220125232308 55 26 7.0 10.0 0.00 0.00 0.00 44 1018.5
20220125231807 55 30 9.0 13.0 0.00 0.00 0.00 44 1018.5
20220125231307 55 33 6.0 12.0 0.00 0.00 0.00 44 1018.5
20220125230807 55 34 7.0 12.0 0.00 0.00 0.00 43 1018.3
20220125230307 56 68 6.0 12.0 0.00 0.00 0.00 43 1018.3
20220125224307 56 42 8.0 12.0 0.00 0.00 0.00 44 1018.2
20220125221307 56 35 7.0 13.0 0.00 0.00 0.00 44 1018.0
20220125220807 57 40 6.0 14.0 0.00 0.00 0.00 44 1018.0
20220125215807 57 45 7.0 17.0 0.00 0.00 0.00 44 1018.0
20220125214807 57 62 9.0 13.0 0.00 0.00 0.00 44 1017.7
20220125214307 57 63 5.0 13.0 0.00 0.00 0.00 45 1017.7
20220125213307 58 29 5.0 12.0 0.00 0.00 0.00 45 1017.4
20220125212807 57 23 5.0 12.0 0.00 0.00 0.00 45 1017.4
20220125212307 57 28 7.0 12.0 0.00 0.00 0.00 45 1017.4
20220125211307 57 33 8.0 17.0 0.00 0.00 0.00 46 1017.4
20220125210807 57 13 6.0 12.0 0.00 0.00 0.00 45 1017.5
20220125210307 57 29 7.0 13.0 0.00 0.00 0.00 45 1017.5
20220125205807 57 14 4.0 7.0 0.00 0.00 0.00 45 1017.5
20220125204807 57 33 8.0 12.0 0.00 0.00 0.00 45 1017.5
20220125203807 57 62 6.0 12.0 0.00 0.00 0.00 47 1017.5
20220125203307 56 26 6.0 13.0 0.00 0.00 0.00 47 1017.5
20220125202807 57 35 6.0 12.0 0.00 0.00 0.00 46 1017.5
20220125201307 56 36 5.0 12.0 0.00 0.00 0.00 47 1017.5
20220125200807 56 43 6.0 13.0 0.00 0.00 0.00 48 1017.5
20220125195807 55 26 8.0 12.0 0.00 0.00 0.00 48 1017.5
20220125194306 57 38 7.0 15.0 0.00 0.00 0.00 46 1017.7
20220125193806 56 74 3.0 9.0 0.00 0.00 0.00 48 1017.7
20220125193306 55 31 6.0 14.0 0.00 0.00 0.00 48 1017.7
20220125192306 55 68 8.0 14.0 0.00 0.00 0.00 48 1017.6
20220125191807 55 51 9.0 15.0 0.00 0.00 0.00 49 1017.7
20220125191306 55 358 6.0 12.0 0.00 0.00 0.00 49 1017.8
20220125190307 55 75 7.0 13.0 0.00 0.00 0.00 49 1017.9
20220125185806 54 68 5.0 13.0 0.00 0.00 0.00 50 1018.0
20220125185307 54 34 6.0 12.0 0.00 0.00 0.00 50 1018.1
20220125184806 54 63 5.0 12.0 0.00 0.00 0.00 51 1018.2
20220125184306 54 57 10.0 15.0 0.00 0.00 0.00 51 1018.2
20220125183807 53 65 10.0 14.0 0.00 0.00 0.00 51 1018.3
20220125183307 53 38 6.0 13.0 0.00 0.00 0.00 51 1018.3
20220125182307 53 30 9.0 14.0 0.00 0.00 0.00 52 1018.4
20220125181307 53 79 7.0 13.0 0.00 0.00 0.00 52 1018.6
20220125180306 53 70 7.0 13.0 0.00 0.00 0.00 52 1018.5
20220125175806 52 67 6.0 12.0 0.00 0.00 0.00 53 1018.6
20220125175306 52 42 7.0 12.0 0.00 0.00 0.00 53 1018.6
20220125173807 51 21 7.0 14.0 0.00 0.00 0.00 54 1018.9
20220125173306 52 56 6.0 13.0 0.00 0.00 0.00 53 1018.8
20220125172807 51 94 8.0 17.0 0.00 0.00 0.00 55 1018.8
20220125172307 52 27 8.0 15.0 0.00 0.00 0.00 54 1019.0
20220125171807 51 45 9.0 20.0 0.00 0.00 0.00 55 1018.9
20220125171306 51 41 7.0 12.0 0.00 0.00 0.00 55 1018.9
20220125170806 50 56 9.0 15.0 0.00 0.00 0.00 56 1018.9
20220125165806 50 62 12.0 18.0 0.00 0.00 0.00 55 1018.8
20220125165307 50 58 9.0 15.0 0.00 0.00 0.00 56 1018.8
20220125163806 50 61 6.0 17.0 0.00 0.00 0.00 56 1018.6
20220125163306 49 56 10.0 17.0 0.00 0.00 0.00 56 1018.6
20220125161807 48 44 7.0 13.0 0.00 0.00 0.00 57 1018.4
20220125161306 47 36 10.0 16.0 0.00 0.00 0.00 57 1018.4
20220125160806 47 30 10.0 17.0 0.00 0.00 0.00 58 1018.3
20220125160306 47 45 7.0 18.0 0.00 0.00 0.00 58 1018.2
20220125155806 47 57 10.0 18.0 0.00 0.00 0.00 58 1018.0
20220125155306 46 53 10.0 20.0 0.00 0.00 0.00 58 1018.0
20220125154806 46 57 7.0 20.0 0.00 0.00 0.00 58 1017.9
20220125154306 46 53 9.0 17.0 0.00 0.00 0.00 58 1017.9
20220125153306 45 46 9.0 14.0 0.00 0.00 0.00 58 1017.8
20220125152806 45 43 8.0 15.0 0.00 0.00 0.00 59 1017.8
20220125152306 45 49 9.0 16.0 0.00 0.00 0.00 59 1017.6
20220125150806 43 39 9.0 17.0 0.00 0.00 0.00 61 1017.3
20220125150306 43 31 7.0 15.0 0.00 0.00 0.00 61 1017.3
20220125145806 43 31 10.0 20.0 0.00 0.00 0.00 62 1017.3
20220125145306 42 32 9.0 17.0 0.00 0.00 0.00 62 1017.3
20220125144806 42 40 9.0 17.0 0.00 0.00 0.00 62 1017.1
20220125143806 42 33 7.0 16.0 0.00 0.00 0.00 64 1017.0
20220125143306 41 31 9.0 18.0 0.00 0.00 0.00 64 1017.0
20220125142307 41 33 7.0 13.0 0.00 0.00 0.00 65 1017.0
20220125141805 41 26 6.0 14.0 0.00 0.00 0.00 66 1016.8
20220125140806 40 25 7.0 14.0 0.00 0.00 0.00 67 1016.8
20220125135805 40 35 8.0 13.0 0.00 0.00 0.00 69 1016.7
20220125135306 40 33 6.0 14.0 0.00 0.00 0.00 69 1016.7
20220125134805 40 10 7.0 12.0 0.00 0.00 0.00 69 1016.7
20220125133806 40 34 8.0 12.0 0.00 0.00 0.00 69 1016.6
20220125132805 40 34 9.0 14.0 0.00 0.00 0.00 70 1016.3
20220125132306 40 26 8.0 12.0 0.00 0.00 0.00 70 1016.2
20220125131805 40 31 6.0 12.0 0.00 0.00 0.00 70 1016.2
20220125131305 40 34 6.0 12.0 0.00 0.00 0.00 71 1016.2
20220125130805 40 30 8.0 14.0 0.00 0.00 0.00 70 1016.1
20220125130305 40 30 5.0 12.0 0.00 0.00 0.00 71 1016.0
20220125125805 40 17 7.0 10.0 0.00 0.00 0.00 72 1016.0
20220125125306 40 31 6.0 12.0 0.00 0.00 0.00 72 1016.0
20220125124805 40 28 6.0 13.0 0.00 0.00 0.00 72 1015.8
20220125123806 40 23 7.0 14.0 0.00 0.00 0.00 73 1015.5
20220125123306 40 36 6.0 10.0 0.00 0.00 0.00 73 1015.5
20220125122306 40 29 6.0 12.0 0.00 0.00 0.00 74 1015.3
20220125121806 40 19 6.0 10.0 0.00 0.00 0.00 74 1015.4
20220125120305 40 19 5.0 9.0 0.00 0.00 0.00 76 1015.2
20220125114306 41 30 6.0 10.0 0.00 0.00 0.00 77 1014.9
20220125113806 41 22 6.0 12.0 0.00 0.00 0.00 78 1014.8